N0MR Weather Reports


time (UTC)temp
F
wind
direction
speed
knots
gust
knots
rain 1hr
in
rain 24hr
in
rain mn
in
humidity
%
barometer
mb
20260902135645 61 240 0.0 0.9 0.00 0.01 0.00 88 1012.6
20260902134643 61 240 0.0 0.9 0.00 0.01 0.00 88 1012.6
20260902133644 60 240 0.0 0.9 0.00 0.01 0.00 94 1012.5
20260902132644 60 240 0.0 0.9 0.00 0.01 0.00 94 1012.5
20260902131644 58 240 0.0 0.0 0.00 0.01 0.00 96 1012.3
20260902130643 58 240 0.0 0.0 0.00 0.01 0.00 96 1012.3
20260902125644 56 240 0.0 0.0 0.00 0.01 0.00 96 1012.4
20260902124644 56 240 0.0 0.0 0.00 0.01 0.00 96 1012.4
20260902122644 55 240 0.0 0.0 0.00 0.01 0.00 95 1012.1
20260902121642 55 240 0.0 0.0 0.00 0.01 0.00 95 1012.0
20260902120643 55 240 0.0 0.0 0.00 0.01 0.00 94 1011.9
20260902115644 55 240 0.0 0.0 0.00 0.01 0.00 94 1011.9
20260902114643 55 239 0.0 0.0 0.00 0.01 0.00 94 1011.9
20260902113644 55 239 0.0 0.0 0.00 0.01 0.00 94 1011.9
20260902112645 55 240 0.0 0.0 0.00 0.01 0.00 94 1011.9
20260902111644 55 240 0.0 0.0 0.00 0.01 0.00 94 1011.9
20260902110643 56 240 0.0 0.0 0.00 0.01 0.00 94 1011.9
20260902105643 56 240 0.0 0.0 0.00 0.01 0.00 94 1011.9
20260902104643 56 240 0.0 0.0 0.00 0.01 0.00 94 1012.0
20260902103643 56 240 0.0 0.0 0.00 0.01 0.00 94 1012.0
20260902102644 56 240 0.0 0.0 0.00 0.01 0.00 93 1012.1
20260902101644 56 240 0.0 0.0 0.00 0.01 0.00 93 1012.1
20260902100643 56 240 0.0 0.0 0.00 0.01 0.00 93 1012.3
20260902095643 56 240 0.0 0.0 0.00 0.01 0.00 93 1012.3
20260902094643 57 239 0.0 0.0 0.00 0.01 0.00 92 1012.0
20260902093644 57 239 0.0 0.0 0.00 0.01 0.00 92 1012.0
20260902092643 57 240 0.0 0.0 0.00 0.01 0.00 91 1011.7
20260902091643 57 240 0.0 0.0 0.00 0.01 0.00 91 1011.7
20260902090645 58 239 0.0 0.0 0.00 0.01 0.00 91 1011.4
20260902073645 60 240 0.0 0.0 0.00 0.01 0.00 88 1011.5
20260902072645 60 240 0.0 0.0 0.00 0.01 0.00 88 1011.5
20260902071646 60 240 0.0 0.0 0.00 0.01 0.00 88 1011.6
20260902070646 60 240 0.0 0.0 0.00 0.01 0.00 88 1011.6
20260902065647 60 240 0.0 0.0 0.00 0.01 0.00 88 1011.6
20260902064645 60 240 0.0 0.0 0.00 0.01 0.00 88 1011.6
20260902063646 60 240 0.0 0.0 0.00 0.01 0.00 87 1011.5
20260902062645 60 240 0.0 0.0 0.00 0.01 0.00 87 1011.5
20260902061646 60 240 0.0 0.9 0.00 0.01 0.00 87 1011.5
20260902060649 60 240 0.0 0.9 0.00 0.01 0.00 87 1011.5
20260902055645 60 240 0.0 0.9 0.00 0.01 0.00 86 1011.6
20260902054645 60 239 0.0 1.7 0.00 0.01 0.00 86 1011.6
20260902053645 60 239 0.0 1.7 0.00 0.01 0.00 86 1011.6
20260902052645 60 240 0.0 0.9 0.00 0.01 0.00 86 1012.0
20260902051645 60 240 0.0 0.9 0.00 0.01 0.00 86 1012.0
20260902050646 60 240 0.0 1.7 0.00 0.01 0.01 86 1012.1
20260902045647 60 240 0.0 1.7 0.00 0.01 0.01 86 1012.1
20260902044646 60 240 0.0 1.7 0.00 0.01 0.01 85 1011.9
20260902043645 60 240 0.0 1.7 0.00 0.01 0.01 85 1011.9
20260902042647 61 240 0.0 0.9 0.00 0.01 0.01 84 1011.8
20260902041646 61 240 0.0 0.9 0.00 0.01 0.01 84 1011.8
20260902040646 61 240 0.0 1.7 0.00 0.01 0.01 83 1011.6
20260902035647 61 240 0.0 1.7 0.00 0.01 0.01 83 1011.6
20260902034645 61 240 0.0 0.0 0.00 0.01 0.01 83 1011.6
20260902033647 61 240 0.0 0.0 0.00 0.01 0.01 83 1011.6
20260902032646 62 240 0.0 1.7 0.00 0.01 0.01 82 1011.6
20260902031646 62 240 0.0 1.7 0.00 0.01 0.01 82 1011.6
20260902030649 63 240 0.0 0.9 0.00 0.01 0.01 80 1011.6
20260902025646 63 240 0.0 0.9 0.00 0.01 0.01 80 1011.6
20260902024647 63 240 0.0 1.7 0.00 0.01 0.01 79 1011.4
20260902023646 64 240 0.0 0.9 0.00 0.01 0.01 79 1011.4
20260902022646 64 240 0.0 0.9 0.00 0.01 0.01 79 1011.4
20260902021649 64 240 0.0 1.7 0.00 0.01 0.01 78 1011.2
20260902020646 64 240 0.0 1.7 0.00 0.01 0.01 78 1011.2
20260902015650 64 240 0.0 0.9 0.00 0.01 0.01 79 1011.1
20260902014646 64 240 0.0 0.9 0.00 0.01 0.01 79 1011.1
20260902013648 65 240 0.0 0.0 0.00 0.01 0.01 78 1010.9
20260902012647 65 240 0.0 0.0 0.00 0.01 0.01 78 1010.9
20260902005647 69 240 0.0 0.0 0.00 0.01 0.01 71 1010.6
20260902004646 69 240 0.0 0.0 0.00 0.01 0.01 71 1010.6
20260902003649 71 240 0.0 3.5 0.00 0.01 0.01 65 1010.4
20260902002646 71 240 0.0 3.5 0.00 0.01 0.01 65 1010.4
20260902001647 72 229 0.0 5.2 0.00 0.01 0.01 62 1010.5
20260902000648 72 229 0.0 5.2 0.00 0.01 0.01 62 1010.5
20260901235648 73 242 1.7 5.2 0.00 0.01 0.01 58 1010.4
20260901234647 73 242 1.7 5.2 0.00 0.01 0.01 58 1010.4
20260901233648 74 221 0.9 7.0 0.00 0.01 0.01 56 1010.4
20260901232646 75 5 0.9 6.1 0.00 0.01 0.01 55 1010.2
20260901224648 76 49 3.5 7.0 0.00 0.01 0.01 52 1010.2
20260901223649 76 49 3.5 7.0 0.00 0.01 0.01 52 1010.2
20260901222649 76 221 0.9 8.7 0.00 0.01 0.01 52 1010.1
20260901221648 76 221 0.9 8.7 0.00 0.01 0.01 52 1010.1
20260901220649 76 333 5.2 9.6 0.00 0.01 0.01 50 1010.0
20260901215649 76 333 5.2 9.6 0.00 0.01 0.01 50 1010.0
20260901214649 77 155 4.3 12.2 0.00 0.01 0.01 46 1009.9
20260901213648 77 155 4.3 12.2 0.00 0.01 0.01 46 1009.9
20260901212648 80 194 3.5 7.8 0.00 0.01 0.01 45 1009.9
20260901211648 80 194 3.5 7.8 0.00 0.01 0.01 45 1009.9
20260901210648 79 209 6.1 10.4 0.00 0.01 0.01 46 1010.0
20260901205649 79 209 6.1 10.4 0.00 0.01 0.01 46 1010.0
20260901204647 79 213 3.5 11.3 0.00 0.01 0.01 45 1010.0
20260901203648 79 213 3.5 11.3 0.00 0.01 0.01 45 1010.0
20260901202649 78 216 2.6 9.6 0.00 0.01 0.01 49 1010.1
20260901201648 79 207 4.3 7.8 0.00 0.01 0.01 47 1010.1
20260901200648 79 207 4.3 7.8 0.00 0.01 0.01 47 1010.1
20260901195648 77 249 1.7 8.7 0.00 0.01 0.01 51 1010.2
20260901194652 77 249 1.7 8.7 0.00 0.01 0.01 51 1010.2
20260901193648 78 221 5.2 9.6 0.00 0.01 0.01 46 1010.1
20260901192648 78 221 5.2 9.6 0.00 0.01 0.01 46 1010.1
20260901191652 79 196 2.6 10.4 0.00 0.01 0.01 48 1010.4
20260901190649 79 196 2.6 10.4 0.00 0.01 0.01 48 1010.4
20260901185648 79 194 1.7 11.3 0.00 0.01 0.01 46 1010.5
20260901184650 79 194 1.7 11.3 0.00 0.01 0.01 46 1010.5
20260901183650 78 192 2.6 8.7 0.00 0.01 0.01 49 1010.6
20260901181649 77 215 4.3 10.4 0.00 0.01 0.01 49 1010.7
20260901180650 77 215 4.3 10.4 0.00 0.01 0.01 49 1010.7
20260901175649 77 71 3.5 8.7 0.00 0.01 0.01 51 1010.9
20260901174649 77 71 3.5 8.7 0.00 0.01 0.01 51 1010.9
20260901173649 76 55 0.9 10.4 0.00 0.01 0.01 52 1010.8
20260901172649 76 55 0.9 10.4 0.00 0.01 0.01 52 1010.8
20260901171648 76 327 1.7 13.0 0.00 0.01 0.01 53 1010.9
20260901170648 75 219 1.7 13.0 0.00 0.01 0.01 55 1011.2
20260901165649 75 219 1.7 13.0 0.00 0.01 0.01 55 1011.2
20260901164649 75 162 1.7 7.8 0.00 0.01 0.01 56 1011.4
20260901163648 75 162 1.7 7.8 0.00 0.01 0.01 56 1011.4
20260901162649 74 217 3.5 12.2 0.00 0.01 0.01 59 1011.6
20260901161624 74 217 3.5 12.2 0.00 0.01 0.01 59 1011.6
20260901160626 72 197 1.7 12.2 0.00 0.01 0.01 61 1011.6
20260901155626 72 197 1.7 12.2 0.00 0.01 0.01 61 1011.6
20260901154625 72 304 1.7 8.7 0.01 0.01 0.01 64 1011.5
20260901153626 72 304 1.7 8.7 0.01 0.01 0.01 64 1011.5
20260901152625 70 201 2.6 6.1 0.01 0.01 0.01 68 1011.6
20260901151626 70 201 2.6 6.1 0.01 0.01 0.01 68 1011.6